Millboro, Virginia
Current Conditions -  °F | °C
As of 5:50 AM on Saturday 25 Oct 2014 (Local Time) from KHSP Reporting Station
Clear Clear  
Wind Chill: 37°   Ceiling: Unl
Heat Index: 43°   Visibility: 10mi
Dew Point: 34°   Wind: 9mph
Humidity: 73%   Direction: 300°WNW
Pressure: 30.01"   Gusts: NA
Location:  37.98°N, 79.6°W
Report Text: KHSP 250950Z AUTO 30008KT 10SM CLR 06/01 A3001 RMK AO2 T00590013
Loading
Personal Weather Stations






























Interactive Weather Map New forecast layout! Learn more

10-Day Weather Forecast

Advertisements
Track Severe Weather on mobile